Location: Kaarina
(60.4167°N, 22.4167°E)
Time: 09:09:22
(UTC+03:00)

Lacrosse 4 Rocket - Pass Details

Date: 24 August 2019
Orbit: 543 x 616 km, 68.0° (Epoch: 19 September)

Event Time Altitude Azimuth Distance (km) Brightness Sun altitude
Rises 22:02:00 0° 300° (WNW) 2,815 7.2 -7.3°
Reaches altitude 10° 22:04:26 10° 310° (NW) 1,900 5.9 -7.6°
Maximum altitude 22:08:20 34° 16° (NNE) 950 2.8 -8.0°
Drops below altitude 10° 22:12:10 10° 83° (E) 1,856 3.6 -8.3°
Enters shadow 22:13:29 - 89° (E) 2,345 4.1 -8.4°
